Snowfall_Accumulation
0.0 0.0 0.0 0.0 0.0 0.0 0.0 0.0 0.1 0.2 0.0 0.0 0.0 0.0 0.0 0.0 0.0 0.0 0.0 0.0 0.0 0.0 0.0 0.0 0.0 0.0 0.0 0.0 0.0 0.0 0.0 0.0 0.0 0.0 0.0 0.0 0.0 0.0
0.0 0.0 0.0 0.0 0.0 0.0 0.0 0.0 0.0 0.2 0.3 0.0 0.0 0.0 0.0 0.0 0.0 0.0 0.0 0.0 0.0 0.0 0.1 0.1 0.1 0.1 0.1 0.0 0.0 0.0 0.0 0.0 0.0 0.0 0.0 0.0 0.0 0.0
0.0 0.0 0.0 0.1 0.0 0.0 0.0 0.0 0.1 0.1 0.3 0.1 0.1 0.1 0.1 0.0 0.0 0.0 0.0 0.0 0.0 0.1 0.1 0.1 0.1 0.1 0.1 0.1 0.1 0.1 0.0 0.0 0.0 0.0 0.0 0.0 0.0 0.0
0.0 0.0 0.1 0.1 0.0 0.1 0.0 0.2 0.2 0.3 0.8 0.9 0.3 0.2 0.1 0.1 0.0 0.0 0.0 0.0 0.0 0.0 0.1 0.2 0.2 0.2 0.2 0.2 0.2 0.1 0.1 0.0 0.0 0.0 0.0 0.0 0.0 0.0
0.1 0.1 0.1 0.1 0.1 0.2 0.2 0.2 0.3 0.4 0.6 1.0 0.5 0.1 0.1 0.0 0.1 0.1 0.0 0.0 0.0 0.0 0.0 0.1 0.1 0.2 0.3 0.3 0.3 0.2 0.2 0.2 0.1 0.1 0.1 0.0 0.0 0.0
0.3 0.3 0.5 0.4 0.5 0.4 0.4 0.5 0.7 0.8 0.9 1.3 1.5 1.0 0.8 0.3 0.3 0.2 0.1 0.1 0.1 0.1 0.1 0.0 0.1 0.2 0.2 0.2 0.2 0.3 0.3 0.3 0.4 0.3 0.3 0.2 0.1 0.1
0.3 0.3 0.3 0.2 0.2 0.2 0.4 0.8 1.0 1.4 2.2 2.6 2.3 1.6 0.9 0.7 0.7 0.5 0.8 0.4 0.3 0.1 0.1 0.1 0.1 0.1 0.1 0.1 0.1 0.1 0.2 0.4 0.5 0.5 0.5 0.3 0.2 0.1
0.2 0.5 0.4 0.4 0.3 0.3 0.4 0.7 1.5 2.4 3.3 3.6 3.3 2.3 1.1 0.8 0.7 1.0 1.4 2.2 1.7 0.4 0.4 0.4 0.2 0.2 0.2 0.1 0.1 0.2 0.4 0.7 0.8 0.9 0.7 0.5 0.3 0.2
0.6 0.6 0.5 0.4 0.5 0.4 0.4 0.9 1.4 1.8 2.2 2.5 2.4 1.5 1.1 0.9 1.9 3.1 3.2 3.5 2.7 1.0 1.0 1.1 0.3 0.4 0.2 0.2 0.2 0.3 0.4 0.6 0.7 0.8 0.7 0.5 0.5 0.4
0.6 0.5 0.5 0.5 0.4 0.6 1.2 1.6 1.1 0.6 0.6 0.6 0.9 0.9 1.0 1.2 2.6 4.7 4.7 3.6 1.8 0.7 0.7 1.9 0.7 0.4 0.2 0.2 0.2 0.3 0.4 0.5 0.8 0.9 0.9 0.7 0.6 0.5
0.4 0.4 0.5 0.4 0.6 1.6 2.6 2.3 1.1 0.3 0.1 0.5 0.8 0.8 0.8 0.8 1.2 3.4 4.8 5.3 3.8 1.1 0.7 1.8 1.3 1.1 0.8 0.5 0.2 0.4 0.8 0.7 1.0 0.9 0.9 0.9 0.7 0.6
0.6 0.5 0.5 0.6 1.1 2.2 2.4 2.1 1.4 0.6 0.8 0.5 0.3 0.2 0.2 0.3 0.6 2.6 6.4 10.1 7.7 4.3 1.1 2.3 2.8 3.4 4.3 1.4 1.5 1.2 1.0 1.1 1.0 0.9 1.0 1.0 1.0 1.1
1.1 0.8 0.3 0.9 1.8 2.0 1.7 1.0 1.3 1.9 1.6 0.8 0.5 0.4 0.4 0.4 0.5 1.1 3.6 10.1 13.1 8.3 2.2 5.9 7.3 4.8 8.2 6.1 2.6 1.7 1.7 2.0 1.8 1.2 1.0 1.0 1.1 1.4
1.3 0.8 0.8 1.5 1.6 1.2 0.9 0.9 1.3 1.1 0.8 1.1 1.0 1.1 1.2 1.3 1.5 1.7 2.6 4.6 7.6 8.7 5.5 8.2 12.8 9.6 11.8 9.3 4.6 3.1 1.6 2.6 3.4 2.4 1.6 0.9 0.8 0.9
1.0 1.3 1.3 1.1 1.0 0.9 0.8 1.0 1.2 1.4 2.0 2.8 2.5 2.0 1.9 2.3 2.5 3.3 3.5 3.8 4.3 4.8 6.5 6.8 9.8 10.6 12.6 12.2 8.6 6.9 7.2 4.2 4.2 4.1 2.8 1.8 1.1 1.1
1.4 1.3 1.0 0.8 0.8 1.1 1.0 1.2 1.3 2.1 3.7 5.1 4.6 3.4 3.2 3.9 5.2 6.4 7.7 8.2 9.9 8.5 7.5 7.2 7.3 10.3 12.1 9.5 10.4 9.8 9.7 10.0 7.0 5.4 4.1 2.8 1.4 1.1
1.6 1.0 1.0 1.1 1.2 1.4 1.3 1.4 1.7 2.2 3.8 4.9 5.6 6.2 6.3 7.4 9.0 10.6 11.7 11.6 11.4 9.8 7.9 6.2 5.6 6.0 7.7 8.6 9.5 9.3 9.9 10.0 7.6 5.1 4.9 5.1 2.3 1.7
1.2 1.2 1.3 1.5 1.8 1.9 2.1 2.0 2.2 3.1 4.8 6.5 7.5 8.6 10.6 11.4 11.7 11.6 12.0 12.1 11.2 8.7 7.2 5.8 5.5 5.9 5.4 4.9 7.1 9.7 10.3 10.4 7.0 5.7 5.8 7.1 5.4 2.9
1.5 1.7 1.7 1.9 2.2 2.6 3.0 3.8 3.6 3.8 5.8 8.2 10.3 12.2 13.3 13.6 13.2 12.5 11.3 10.1 8.6 6.6 5.8 4.9 5.6 9.6 10.5 6.9 5.1 7.1 12.1 12.3 8.3 6.5 6.1 6.7 6.8 4.4
2.2 3.2 3.3 2.8 3.1 3.6 4.4 5.3 6.2 6.8 7.8 10.4 11.8 13.2 14.6 15.2 13.7 11.4 9.5 8.5 7.5 5.8 4.4 3.5 4.5 9.2 14.8 13.6 10.6 8.6 8.5 12.5 13.5 11.7 7.1 4.8 4.2 2.8
3.4 3.9 4.2 3.9 3.7 4.9 5.7 7.1 8.8 10.6 11.2 12.9 13.5 14.4 14.9 14.7 12.1 8.8 7.2 5.7 5.8 6.0 5.7 4.3 3.8 5.0 8.8 11.6 10.4 7.7 8.7 7.3 9.4 14.7 14.0 11.9 9.2 6.8
2.9 3.6 3.9 4.1 4.6 6.0 7.0 8.6 10.3 11.3 12.5 13.4 14.3 14.5 13.4 12.0 10.1 7.0 6.0 6.0 5.7 5.5 5.2 4.2 3.3 3.9 6.7 10.4 9.6 7.4 7.8 7.8 5.8 4.5 6.7 10.8 18.0 18.4
3.1 3.9 4.6 4.9 5.9 7.2 9.0 10.0 10.9 11.7 13.2 14.5 14.4 12.8 11.1 9.0 6.8 6.2 6.1 6.1 6.1 5.5 5.1 4.9 4.3 4.3 5.2 7.0 8.2 7.5 6.8 6.4 6.0 6.4 8.3 5.2 5.6 6.8